Wind_Speed
44 45 46 47 46 46 46 47 48 48 49 50 51 51 52 53 53 52 52 52 53 54 56 55 54 56 58 59 60 61 63 66 68 69 69 68 68 69 71 70 68 65
45 46 48 49 49 50 49 49 49 50 51 51 52 52 53 55 55 55 54 54 54 55 57 56 55 56 58 60 61 62 65 68 69 70 71 71 71 72 73 72 70 67
46 48 49 51 52 53 52 52 51 52 52 52 52 52 54 56 57 57 56 56 56 57 57 57 57 57 59 61 63 65 68 71 72 71 72 73 74 74 75 74 73 70
47 49 51 53 55 55 55 54 53 54 54 52 52 52 54 57 58 59 58 58 58 59 58 59 59 58 59 63 66 68 71 74 74 73 74 75 76 77 77 77 76 74
49 51 53 55 57 57 58 57 56 56 54 53 52 52 54 57 60 61 60 59 60 60 60 60 60 60 61 65 68 70 73 76 76 75 75 77 78 79 79 79 78 77
51 52 54 57 58 59 60 60 58 55 54 55 53 51 53 58 62 62 60 60 61 60 60 60 61 62 65 68 70 71 75 78 77 76 77 79 80 81 82 81 81 80
52 53 56 58 60 62 62 59 55 53 55 57 52 48 52 60 63 61 57 58 59 59 59 60 61 64 68 69 70 73 77 78 77 78 79 80 82 83 83 83 82 82
54 56 59 61 61 61 57 53 53 55 58 57 49 46 53 62 64 59 54 56 59 58 60 61 63 66 68 69 72 75 78 79 78 79 80 81 83 84 84 84 84 84
56 59 60 58 55 51 47 51 56 57 59 56 50 50 56 63 65 59 55 58 61 60 61 63 65 68 70 71 73 76 79 80 80 80 81 82 84 86 86 87 86 85
58 58 53 50 49 45 45 52 56 55 57 56 53 54 58 63 67 63 60 62 64 62 63 65 67 69 71 73 74 77 80 81 81 81 82 84 86 87 88 89 88 86
58 52 46 48 49 47 49 54 55 55 57 56 55 58 60 65 70 67 64 65 65 64 66 68 69 71 73 73 76 80 83 83 83 83 84 85 87 88 90 90 89 87
53 45 44 47 47 48 54 59 59 60 61 61 61 62 64 69 74 69 65 66 66 66 69 70 70 71 72 74 79 83 85 85 85 85 86 87 88 90 92 92 91 89
43 41 47 48 48 51 56 60 62 63 64 64 65 66 69 76 79 72 66 66 67 69 70 71 71 72 73 77 83 86 86 86 87 87 87 88 89 91 94 94 93 91
35 44 53 51 51 54 56 59 61 60 63 66 69 74 79 83 81 73 67 68 70 70 72 73 73 73 75 81 87 89 88 88 88 88 89 90 91 94 96 96 94 93
39 49 51 47 49 53 57 61 63 64 72 76 76 80 85 85 79 72 69 70 72 73 75 75 75 75 78 85 89 90 90 91 91 90 90 90 92 95 97 97 96 95
40 45 45 46 53 56 59 63 66 72 80 81 77 78 80 80 75 70 68 70 74 76 77 75 75 78 83 87 90 91 93 94 93 92 91 92 94 96 97 98 98 97
36 40 44 53 61 63 63 65 70 76 80 78 76 76 75 72 70 67 67 72 77 77 75 75 78 83 88 90 91 94 96 96 94 93 93 93 95 96 97 98 99 98
38 42 49 57 65 67 67 68 71 75 76 74 71 71 69 67 66 67 70 77 82 79 79 83 86 90 93 93 95 98 98 96 95 94 94 95 96 97 97 98 99 97
42 51 56 60 67 69 68 69 71 72 72 71 70 68 66 66 68 70 75 83 88 87 87 90 91 94 95 95 98 100 99 97 95 95 95 96 96 97 98 98 98 95
47 55 58 63 67 69 69 70 71 71 70 70 69 69 69 72 75 76 82 89 92 91 89 90 92 94 96 97 100 101 99 97 95 94 94 95 96 97 98 99 97 92
52 55 59 64 68 70 71 71 71 73 75 74 74 75 76 78 80 83 88 91 90 87 87 90 94 96 97 99 102 102 100 97 95 94 94 95 97 98 99 98 96 90
56 59 65 69 72 74 75 75 76 80 82 82 80 79 79 81 84 87 90 90 88 89 92 95 97 98 99 102 103 102 99 95 93 93 94 96 98 100 100 98 94 88
57 59 63 69 73 75 76 78 82 86 87 87 84 83 84 85 88 90 92 93 96 99 99 98 98 99 100 102 102 98 95 93 92 93 94 96 99 100 100 98 93 87
58 55 57 64 69 73 77 80 84 87 89 89 88 88 89 90 92 94 95 97 99 100 99 98 98 99 100 99 97 93 91 91 92 93 95 97 98 100 100 97 91 87
57 52 55 62 68 73 77 79 82 85 86 88 90 91 91 91 93 94 94 95 96 96 96 95 95 96 96 93 90 89 89 91 92 94 95 96 99 100 99 94 89 87
58 56 61 69 74 77 78 78 79 82 85 88 89 90 89 90 92 94 93 93 93 93 93 93 93 92 90 88 87 87 90 91 92 93 94 97 100 100 97 92 88 88
Wind_Direction
319 319 319 319 319 318 319 319 318 318 318 319 321 322 324 326 326 326 326 325 324 324 326 327 327 332 337 338 338 337 336 336 337 338 339 338 337 338 338 339 338 337
318 318 318 319 319 318 318 318 317 316 317 318 320 321 322 323 324 325 325 324 322 321 323 325 325 327 333 336 336 337 336 335 335 337 338 337 336 337 337 337 337 337
317 317 317 318 318 317 317 317 316 316 315 317 319 319 320 322 323 323 323 322 321 320 321 323 322 322 327 332 333 334 335 334 334 335 336 336 335 336 336 336 337 336
316 317 316 317 317 316 316 316 315 314 314 314 316 318 318 320 322 322 321 320 320 320 320 321 320 318 321 326 328 330 332 332 333 333 334 334 334 335 335 335 336 335
315 316 316 316 316 315 315 314 313 313 313 312 313 316 318 320 321 320 319 319 319 319 319 319 319 318 319 321 323 326 328 330 331 331 331 332 333 333 334 335 335 334
315 316 316 316 315 314 312 311 310 309 310 309 308 311 317 320 321 319 318 318 319 319 318 317 318 319 319 320 321 323 326 328 329 329 329 331 332 332 333 334 334 333
315 316 316 315 314 312 309 308 307 305 308 309 304 307 318 323 322 319 317 318 319 318 317 316 317 319 320 319 319 321 324 326 326 326 328 330 330 331 332 332 332 332
316 316 317 315 312 310 307 306 305 306 310 309 301 303 316 323 324 318 315 318 319 317 316 315 316 318 319 318 318 320 323 324 324 325 327 328 329 330 330 331 331 331
316 317 317 312 308 307 306 306 307 309 311 307 299 302 312 321 324 317 312 316 318 315 314 314 315 317 318 318 318 321 322 322 322 324 326 326 327 328 329 330 330 330
316 318 313 303 300 300 300 303 307 309 308 303 297 298 306 318 323 317 311 313 315 313 312 312 313 315 317 317 318 320 321 321 322 323 324 325 326 327 327 328 329 329
317 314 303 295 296 298 296 299 304 304 300 296 294 294 301 314 320 315 309 309 310 310 308 309 310 313 315 316 318 320 320 320 320 321 322 324 325 325 326 327 327 328
316 302 292 293 295 293 293 296 298 295 292 292 293 293 297 308 314 311 307 306 306 306 306 307 309 311 314 315 318 319 319 319 319 320 321 323 323 324 325 326 326 326
311 290 287 293 294 289 289 294 294 291 290 293 294 293 295 302 308 307 304 304 304 303 304 306 308 310 312 314 317 319 318 318 318 319 320 321 322 322 323 324 325 326
301 289 289 291 293 290 288 293 294 291 293 295 294 294 296 299 302 302 302 303 302 301 302 305 308 309 310 313 316 317 317 317 317 317 319 320 321 321 322 324 324 325
280 289 294 287 286 287 286 288 289 291 295 297 296 298 298 297 297 298 299 301 301 301 302 304 306 307 308 312 316 316 316 316 316 316 317 318 319 320 322 323 324 324
281 295 299 285 279 283 284 285 287 291 297 297 296 297 297 294 293 293 296 301 303 302 301 302 304 305 309 313 315 315 315 315 314 315 316 317 318 320 322 323 324 324
297 299 291 280 279 281 283 285 287 291 295 295 293 293 292 291 288 287 292 301 305 302 299 300 302 305 309 312 313 314 314 313 313 314 315 316 318 320 322 323 323 323
304 292 278 275 277 279 281 284 286 289 292 292 290 288 287 287 286 284 288 298 303 301 299 300 302 305 307 309 311 313 313 312 313 314 315 316 318 320 322 322 322 322
291 281 273 274 277 279 279 280 281 286 290 290 287 284 283 285 286 283 285 294 300 300 299 300 302 304 306 307 310 312 312 312 313 314 315 316 318 320 321 321 321 321
274 273 272 275 277 277 277 277 279 284 289 290 287 284 283 285 286 284 285 292 298 300 300 300 302 304 305 306 309 310 311 311 312 313 315 316 318 319 319 319 320 320
271 272 273 274 275 276 277 277 278 282 287 288 286 285 284 284 284 285 288 294 298 298 298 299 301 302 303 305 307 309 310 311 312 313 314 316 317 317 317 318 319 319
273 273 275 276 277 278 277 277 278 281 285 286 286 285 285 285 286 290 294 297 298 298 298 299 300 300 301 303 306 308 309 311 312 313 314 315 315 315 316 318 319 318
278 278 279 278 279 279 279 279 281 283 285 286 288 289 289 290 293 295 297 298 297 297 297 298 299 300 301 303 305 308 309 310 311 312 313 314 314 315 317 318 319 318
282 282 280 278 278 279 279 280 282 283 284 286 288 290 291 292 293 294 295 295 295 295 297 298 299 300 301 304 306 307 308 309 310 311 312 312 313 315 317 318 318 318
283 279 274 274 276 278 279 280 280 281 283 284 286 287 288 289 290 291 292 292 293 295 298 299 300 301 303 304 306 307 308 309 309 310 310 312 314 316 317 318 318 317
276 273 273 277 280 281 280 279 280 282 283 283 284 285 285 286 288 289 291 292 294 298 300 301 301 303 304 304 305 306 307 307 308 309 311 313 315 316 317 317 316 316
Height
10929 10926 10923 10922 10920 10919 10917 10914 10910 10907 10904 10901 10898 10896 10893 10890 10887 10885 10882 10879 10876 10873 10870 10867 10864 10860 10857 10854 10851 10849 10846 10844 10840 10837 10833 10830 10826 10822 10817 10812 10808 10803
10925 10922 10919 10917 10914 10913 10911 10909 10905 10902 10898 10895 10893 10890 10887 10885 10882 10879 10876 10873 10871 10868 10865 10862 10858 10855 10852 10849 10847 10844 10841 10838 10835 10832 10828 10825 10822 10818 10813 10808 10803 10798
10921 10918 10915 10912 10910 10907 10905 10903 10900 10897 10894 10891 10888 10886 10883 10880 10877 10874 10871 10868 10865 10863 10860 10857 10853 10850 10847 10844 10841 10838 10835 10833 10829 10826 10822 10819 10816 10812 10807 10802 10797 10792
10918 10915 10912 10908 10905 10902 10899 10897 10894 10892 10889 10887 10885 10882 10879 10876 10873 10869 10866 10863 10860 10857 10855 10852 10848 10845 10842 10839 10835 10832 10829 10827 10823 10820 10816 10813 10809 10805 10800 10795 10790 10785
10915 10911 10908 10904 10900 10896 10893 10890 10888 10885 10883 10881 10879 10877 10874 10871 10868 10864 10860 10857 10854 10852 10849 10846 10842 10839 10836 10833 10829 10826 10823 10820 10817 10813 10810 10807 10803 10799 10794 10788 10782 10778
10912 10908 10903 10899 10894 10889 10886 10883 10880 10878 10876 10875 10873 10872 10869 10866 10863 10859 10855 10851 10848 10845 10843 10839 10836 10833 10830 10827 10823 10820 10817 10814 10810 10807 10804 10801 10797 10792 10787 10781 10775 10771
10907 10903 10898 10892 10886 10881 10877 10874 10872 10871 10870 10868 10867 10866 10863 10860 10857 10853 10850 10846 10843 10840 10837 10834 10830 10828 10825 10822 10819 10815 10812 10808 10804 10801 10798 10794 10789 10785 10780 10775 10769 10764
10902 10897 10891 10884 10877 10871 10868 10866 10864 10863 10863 10862 10861 10859 10857 10855 10852 10849 10846 10842 10839 10835 10832 10829 10826 10823 10820 10817 10813 10809 10805 10801 10798 10794 10791 10787 10783 10779 10774 10769 10763 10758
10896 10890 10883 10874 10867 10863 10860 10857 10856 10856 10856 10856 10855 10853 10851 10849 10847 10844 10841 10837 10834 10831 10827 10824 10821 10819 10816 10812 10807 10803 10798 10794 10791 10788 10784 10781 10777 10772 10767 10762 10757 10751
10891 10884 10876 10866 10861 10860 10857 10853 10851 10850 10850 10850 10849 10847 10844 10843 10841 10839 10836 10832 10828 10825 10822 10819 10816 10813 10810 10806 10801 10796 10792 10787 10783 10781 10778 10774 10770 10765 10760 10755 10750 10745
10886 10879 10870 10861 10858 10857 10855 10853 10850 10848 10846 10846 10844 10841 10839 10837 10836 10834 10831 10827 10823 10820 10816 10813 10810 10807 10803 10800 10795 10790 10785 10780 10776 10773 10770 10766 10762 10758 10753 10749 10744 10739
10881 10873 10864 10860 10858 10857 10855 10853 10851 10847 10844 10842 10839 10836 10834 10832 10831 10829 10825 10821 10818 10813 10810 10807 10804 10800 10797 10793 10788 10783 10778 10773 10769 10765 10761 10758 10755 10750 10746 10741 10736 10732
10876 10867 10860 10858 10858 10856 10853 10850 10848 10844 10841 10838 10835 10832 10830 10827 10826 10823 10819 10815 10811 10807 10803 10800 10797 10794 10790 10785 10781 10776 10772 10767 10762 10758 10754 10751 10747 10742 10738 10733 10728 10723
10873 10863 10857 10856 10853 10850 10848 10845 10842 10839 10836 10834 10832 10829 10826 10822 10820 10817 10812 10808 10805 10800 10797 10794 10791 10788 10783 10779 10774 10769 10765 10760 10755 10751 10747 10743 10739 10734 10729 10724 10719 10714
10871 10859 10857 10856 10848 10843 10842 10838 10835 10833 10830 10828 10826 10823 10820 10817 10814 10811 10806 10803 10799 10794 10791 10788 10785 10782 10777 10772 10768 10763 10758 10754 10749 10745 10741 10736 10731 10725 10719 10714 10709 10704
10868 10862 10861 10854 10843 10838 10837 10833 10830 10827 10823 10821 10818 10816 10814 10811 10808 10805 10800 10797 10793 10788 10784 10781 10778 10774 10770 10766 10761 10756 10751 10746 10742 10738 10734 10729 10724 10718 10711 10705 10699 10693
10867 10867 10863 10849 10837 10834 10832 10828 10825 10821 10817 10813 10810 10808 10806 10803 10800 10797 10793 10790 10786 10782 10777 10773 10769 10766 10762 10759 10755 10750 10744 10739 10735 10730 10725 10720 10715 10710 10704 10697 10690 10684
10865 10862 10854 10842 10833 10830 10827 10822 10819 10815 10810 10806 10803 10801 10799 10795 10792 10789 10786 10783 10779 10775 10769 10765 10761 10757 10753 10750 10746 10741 10736 10731 10726 10721 10715 10710 10706 10701 10696 10690 10684 10677
10859 10849 10841 10836 10830 10825 10821 10816 10811 10808 10804 10799 10796 10794 10792 10789 10786 10782 10779 10776 10772 10768 10762 10757 10752 10748 10745 10741 10737 10732 10728 10723 10718 10712 10705 10700 10696 10693 10688 10683 10678 10671
10847 10837 10833 10831 10825 10818 10814 10809 10804 10801 10796 10792 10789 10787 10785 10782 10778 10774 10771 10768 10765 10760 10754 10749 10744 10740 10736 10733 10729 10724 10720 10715 10710 10703 10697 10691 10687 10684 10680 10675 10670 10664
10840 10833 10829 10824 10819 10813 10807 10802 10798 10793 10789 10784 10781 10779 10777 10774 10769 10765 10762 10760 10757 10752 10747 10741 10737 10733 10729 10725 10720 10716 10711 10706 10701 10695 10689 10683 10678 10674 10670 10666 10660 10654
10833 10828 10822 10816 10811 10805 10799 10794 10791 10786 10782 10777 10774 10772 10770 10766 10761 10756 10752 10750 10747 10743 10740 10736 10730 10726 10722 10717 10712 10707 10701 10696 10691 10686 10680 10675 10670 10665 10660 10656 10650 10644
10823 10821 10815 10807 10800 10794 10790 10787 10783 10778 10773 10769 10765 10763 10760 10757 10752 10746 10742 10739 10735 10732 10731 10729 10724 10719 10714 10709 10704 10698 10692 10687 10682 10677 10672 10667 10661 10655 10650 10645 10639 10634
10817 10818 10810 10797 10790 10786 10782 10779 10775 10769 10764 10759 10756 10753 10750 10746 10742 10737 10734 10730 10726 10723 10721 10719 10716 10711 10705 10700 10695 10689 10684 10679 10674 10669 10664 10658 10652 10646 10640 10635 10629 10624
10811 10814 10804 10789 10782 10780 10776 10772 10767 10761 10756 10751 10747 10745 10742 10738 10733 10730 10726 10722 10717 10715 10713 10710 10706 10701 10695 10690 10686 10681 10676 10672 10667 10662 10656 10650 10643 10637 10631 10625 10620 10615
10802 10803 10795 10783 10775 10770 10766 10763 10759 10753 10747 10741 10738 10736 10733 10729 10725 10722 10718 10713 10710 10707 10704 10699 10695 10691 10686 10681 10677 10673 10668 10664 10659 10654 10647 10641 10634 10628 10622 10616 10611 10607